Wind_Speed
8 7 7 6 7 7 6 6 6 5 5 5 4 3 2 2 2 1 1 1 0 0 1 2 2 3 3 3 4 4 5 5 5 5 5 5 5 6 6 6 6 6 7
8 7 6 6 6 6 6 5 5 5 5 4 4 4 3 2 2 2 1 1 0 1 2 2 3 3 3 4 5 4 5 5 4 5 5 5 5 6 7 6 6 7 8
7 7 7 7 7 7 6 6 6 5 4 4 3 3 3 2 2 1 0 1 2 2 2 2 3 4 4 4 4 4 5 5 5 5 5 5 5 6 7 7 7 8 8
8 7 7 7 7 6 6 6 6 5 4 3 3 3 3 2 1 0 1 2 3 4 4 4 5 5 5 5 5 5 5 6 6 6 7 7 7 7 7 8 8 8 8
9 8 8 7 7 7 6 6 5 4 4 4 3 3 3 2 2 2 3 3 4 5 5 6 7 7 6 6 6 7 7 7 7 8 8 8 8 8 8 9 9 9 9
9 8 8 8 7 8 8 7 6 5 5 4 4 4 4 4 4 4 5 6 6 6 6 7 8 9 8 7 7 8 9 8 9 9 9 10 10 11 11 11 11 11 11
8 9 10 8 8 9 9 8 7 7 7 6 6 6 6 6 6 7 7 7 7 7 8 8 9 9 9 9 9 10 10 10 11 11 11 11 12 13 13 13 13 13 13
9 10 10 9 9 9 9 9 8 8 8 9 9 8 8 8 8 9 9 9 9 9 10 11 11 11 11 11 12 12 12 12 12 13 13 13 14 15 15 14 14 14 15
12 12 11 11 10 11 11 10 9 10 10 10 11 11 10 10 11 12 11 11 11 11 12 12 12 13 12 13 14 15 15 14 14 14 15 16 17 17 17 16 15 16 16
13 13 13 13 13 13 12 12 12 12 12 13 13 13 13 13 14 14 14 14 14 14 14 14 14 14 15 16 15 16 16 16 16 17 18 19 19 19 19 18 18 18 17
15 14 14 14 14 13 13 14 14 14 14 14 15 15 16 16 16 16 16 16 16 16 17 16 16 17 18 18 18 18 17 18 19 19 20 20 20 20 20 20 20 19 18
17 17 16 15 15 14 15 15 16 18 17 17 18 17 17 18 18 18 17 18 18 19 20 19 19 19 20 20 21 21 21 21 21 22 22 22 22 22 22 21 21 21 20
20 20 20 19 18 17 18 18 19 19 19 19 20 20 20 20 20 20 20 21 21 22 22 22 22 22 22 23 23 23 23 23 23 24 24 23 23 23 23 22 22 22 22
23 23 22 22 21 20 20 20 20 21 21 22 23 23 23 23 23 23 24 24 23 23 24 24 25 25 25 25 25 26 25 26 26 26 26 25 25 24 24 24 24 24 24
24 24 24 25 24 24 24 24 24 24 24 25 25 25 25 26 26 26 27 26 26 26 27 27 27 27 27 27 27 27 27 28 29 28 28 28 27 26 25 25 25 25 25
26 26 26 26 26 27 27 27 27 27 27 27 27 27 28 28 29 29 29 29 29 29 29 29 29 30 30 30 29 29 29 29 29 29 29 28 28 27 27 26 26 26 26
28 27 28 28 28 28 29 30 30 29 29 29 29 29 30 31 31 31 31 32 31 31 31 32 32 32 32 31 31 31 30 30 29 29 29 29 28 28 29 29 28 28 29
30 30 29 30 30 30 31 31 31 32 32 32 32 33 33 32 32 33 33 32 33 32 33 33 33 32 32 32 32 32 31 30 29 29 29 29 28 29 29 29 29 29 29
32 32 32 33 33 32 32 32 33 33 33 34 34 34 34 33 34 34 34 34 34 33 33 33 33 34 34 34 33 33 32 32 31 30 30 30 30 31 31 30 30 30 30
35 35 35 35 36 36 35 35 36 36 36 36 35 35 35 35 35 35 35 36 35 35 35 35 34 34 35 34 34 34 33 33 32 32 32 31 32 32 32 31 31 31 31
37 36 37 37 38 38 39 39 39 39 38 37 36 37 37 36 36 36 37 37 37 37 36 36 36 36 36 37 36 36 35 34 34 34 34 33 33 33 32 32 32 32 32
38 38 38 39 39 40 40 41 41 40 39 39 38 38 39 39 38 39 39 39 38 38 37 38 38 38 38 38 38 37 37 36 36 35 35 34 34 34 33 33 33 33 33
38 38 38 39 39 40 41 42 41 41 40 40 40 40 39 40 40 40 40 40 39 38 38 39 39 39 39 38 38 37 37 37 36 36 36 36 35 35 35 34 34 34 35
38 38 39 39 39 40 40 40 40 41 41 41 41 41 41 41 42 42 42 41 41 41 40 39 39 39 39 38 38 38 37 37 36 36 37 37 36 36 35 35 35 35 35
36 36 37 38 38 38 39 40 40 41 41 42 42 42 42 42 43 43 44 43 43 43 42 41 40 39 38 38 38 38 38 37 37 37 37 37 37 36 36 36 36 35 34
38 37 37 38 39 39 40 40 41 41 41 42 42 42 42 43 43 43 43 43 43 42 42 42 41 39 39 39 39 39 38 37 37 37 36 36 36 36 36 36 35 34 34
Wind_Direction
24 20 23 24 32 37 41 42 40 39 38 43 47 48 47 50 57 99 161 156 146 353 359 354 345 345 341 338 339 332 322 315 311 309 300 294 293 289 282 274 276 277 279
18 11 8 8 22 23 26 30 31 28 28 34 34 32 30 35 40 52 158 170 126 311 323 336 322 325 327 328 331 330 324 318 318 320 313 305 305 296 291 288 286 286 282
4 6 2 4 5 12 15 15 17 15 16 14 15 15 13 15 33 58 185 223 267 281 287 301 312 312 316 320 319 320 319 320 322 321 318 308 299 299 296 291 289 286 286
351 354 357 355 355 3 5 6 9 10 8 2 6 9 356 344 346 338 275 252 265 273 279 288 300 310 309 310 313 315 313 316 314 313 314 310 305 299 299 295 291 288 288
338 336 338 342 344 348 348 348 345 344 344 343 344 343 341 331 297 289 290 286 280 279 276 285 290 296 298 300 299 300 302 303 304 305 308 302 300 298 294 296 293 289 286
320 319 322 326 325 324 326 326 320 313 315 316 314 314 315 313 308 298 291 294 287 285 281 283 286 288 289 289 293 294 294 297 299 300 301 300 299 298 294 292 290 288 286
305 314 320 323 320 313 311 314 309 304 305 303 298 295 297 296 298 296 291 290 288 290 288 287 291 290 287 283 287 291 288 292 293 293 295 294 296 295 292 288 286 287 286
307 312 315 313 315 310 303 304 303 303 301 295 291 289 289 291 289 288 285 285 285 285 285 286 287 290 289 286 285 288 287 289 290 288 290 292 294 294 293 288 286 286 286
308 311 311 309 304 302 294 297 293 298 297 295 292 289 287 286 286 283 281 280 283 283 283 285 286 286 285 286 286 284 282 285 288 288 289 290 291 292 293 290 288 287 284
301 303 307 308 303 305 297 298 297 298 297 294 296 295 291 290 289 285 280 278 280 282 282 281 283 284 284 283 285 285 283 284 285 287 288 288 287 288 289 289 287 285 284
296 298 304 310 306 301 298 294 291 294 296 296 294 294 290 288 290 287 282 278 279 279 279 280 281 281 282 282 282 284 282 282 282 284 287 287 287 287 287 286 285 283 282
290 295 296 298 299 297 295 293 293 294 293 293 294 293 292 290 286 284 283 281 279 278 277 277 278 278 278 279 280 281 281 280 281 284 285 285 286 285 285 285 283 282 282
285 288 289 287 289 292 294 292 293 293 291 291 292 290 289 288 285 282 283 283 281 278 276 276 276 276 277 278 279 280 280 279 280 282 284 286 286 284 283 283 282 280 280
280 283 285 284 284 287 289 289 289 289 290 290 290 290 289 287 285 282 281 282 280 278 276 275 275 277 277 278 278 278 279 279 279 279 280 281 283 282 282 282 280 278 278
278 279 280 281 284 286 286 288 288 287 287 287 287 287 287 285 284 283 282 280 280 277 276 274 274 274 275 274 275 277 279 279 278 278 279 279 280 280 279 278 278 277 277
280 279 280 282 283 284 284 287 287 287 287 286 285 285 284 283 283 282 281 279 279 277 276 274 273 273 273 273 274 276 278 279 278 277 277 277 276 276 277 278 277 277 277
278 280 282 283 284 285 286 288 285 285 287 287 285 285 284 282 282 282 282 280 277 276 275 274 274 274 274 273 273 275 277 279 279 277 275 275 276 276 277 278 278 279 278
280 283 284 284 285 285 286 285 285 285 286 286 286 285 285 284 282 281 280 278 275 274 274 274 274 274 273 273 274 274 276 277 277 277 277 275 274 276 277 277 277 278 278
280 282 283 285 285 285 284 284 285 285 285 285 285 285 285 284 283 281 280 278 277 275 275 274 273 274 274 275 275 275 276 276 276 276 276 274 274 274 274 275 276 277 278
279 281 282 283 284 284 285 285 285 285 285 285 285 285 284 284 282 281 279 277 276 276 275 275 275 276 276 275 276 277 277 276 275 275 276 276 276 275 274 275 276 277 278
279 280 281 281 282 283 284 285 285 285 285 285 284 283 283 282 282 281 280 280 278 278 277 277 276 276 275 274 275 275 275 274 274 275 275 275 275 274 275 276 276 277 278
279 280 280 281 281 282 284 285 285 285 285 285 284 283 282 281 280 279 280 279 277 276 276 277 278 278 276 275 275 275 273 273 273 273 273 274 274 273 272 273 275 276 278
277 278 280 281 283 284 284 285 285 286 285 285 284 283 281 280 279 279 279 277 277 277 277 277 279 279 277 276 275 275 272 271 272 272 272 272 272 271 271 272 274 276 277
277 278 279 282 283 283 284 285 286 287 286 285 284 283 282 281 280 280 280 279 278 278 278 278 278 277 277 275 274 274 272 271 271 271 272 271 271 271 270 270 271 274 275
278 280 282 284 284 283 285 285 286 287 287 286 285 285 283 282 282 281 280 279 278 279 278 277 277 277 276 274 273 274 273 271 271 271 271 271 271 270 270 270 271 273 274
282 283 283 284 284 285 285 285 285 286 286 287 286 285 283 283 282 282 280 279 279 279 278 277 277 276 276 274 273 272 272 271 270 269 270 271 271 270 270 270 271 272 271
Height
5925 5923 5922 5921 5920 5920 5919 5918 5918 5917 5916 5916 5916 5915 5915 5915 5914 5913 5914 5914 5915 5915 5915 5915 5914 5913 5913 5912 5911 5910 5909 5908 5907 5906 5905 5905 5905 5904 5903 5903 5902 5901 5901
5924 5923 5922 5921 5921 5920 5919 5918 5918 5917 5917 5916 5916 5915 5915 5914 5914 5913 5913 5914 5914 5914 5914 5914 5913 5913 5912 5911 5910 5909 5908 5907 5906 5905 5904 5903 5903 5902 5901 5901 5900 5899 5898
5924 5923 5922 5921 5921 5920 5919 5918 5917 5917 5916 5916 5916 5915 5915 5914 5914 5913 5913 5913 5913 5913 5913 5913 5912 5911 5910 5910 5909 5908 5907 5906 5905 5904 5903 5902 5902 5901 5900 5899 5898 5897 5896
5924 5923 5922 5921 5920 5919 5919 5918 5917 5917 5916 5916 5915 5914 5914 5914 5913 5913 5913 5912 5912 5912 5911 5911 5911 5910 5909 5908 5907 5906 5905 5904 5904 5903 5902 5901 5900 5899 5899 5898 5896 5895 5894
5923 5922 5922 5921 5920 5919 5918 5917 5917 5916 5916 5915 5914 5914 5913 5913 5912 5912 5911 5911 5910 5909 5909 5909 5908 5908 5907 5906 5905 5904 5903 5902 5902 5901 5900 5899 5898 5897 5896 5895 5894 5893 5892
5922 5921 5920 5920 5919 5918 5917 5917 5916 5915 5915 5914 5913 5913 5912 5911 5911 5910 5909 5909 5908 5907 5906 5906 5906 5905 5904 5903 5902 5901 5901 5900 5899 5898 5897 5896 5895 5894 5893 5892 5891 5890 5889
5920 5919 5918 5918 5917 5916 5916 5915 5914 5914 5913 5912 5912 5911 5910 5909 5909 5908 5907 5907 5905 5905 5904 5904 5903 5902 5901 5900 5899 5899 5898 5897 5896 5895 5894 5893 5893 5891 5890 5889 5888 5887 5886
5917 5917 5916 5916 5915 5914 5913 5913 5912 5911 5911 5910 5909 5908 5908 5907 5906 5905 5904 5904 5903 5902 5902 5901 5900 5899 5898 5897 5897 5896 5894 5893 5892 5891 5890 5890 5889 5888 5886 5885 5884 5882 5882
5913 5913 5912 5912 5912 5912 5911 5910 5909 5909 5908 5907 5906 5905 5904 5904 5903 5902 5901 5900 5900 5899 5898 5897 5896 5895 5894 5894 5893 5892 5891 5890 5888 5887 5887 5885 5884 5883 5882 5880 5879 5878 5877
5910 5909 5909 5908 5908 5907 5907 5906 5906 5906 5905 5903 5902 5902 5901 5900 5899 5898 5897 5896 5895 5895 5894 5893 5892 5891 5890 5889 5888 5887 5886 5885 5884 5883 5882 5881 5879 5878 5877 5875 5874 5873 5872
5906 5905 5905 5905 5904 5904 5903 5903 5902 5902 5901 5899 5898 5897 5896 5895 5894 5893 5892 5891 5890 5890 5889 5888 5887 5886 5885 5884 5882 5881 5881 5880 5879 5878 5877 5875 5874 5872 5871 5869 5868 5867 5866
5901 5901 5901 5901 5900 5900 5899 5898 5898 5897 5896 5895 5893 5892 5891 5890 5889 5888 5887 5886 5885 5884 5883 5882 5881 5880 5879 5878 5877 5876 5875 5874 5873 5872 5871 5869 5867 5866 5865 5864 5862 5861 5860
5897 5896 5896 5896 5896 5895 5894 5893 5892 5891 5890 5889 5888 5887 5886 5885 5884 5883 5881 5880 5879 5878 5877 5876 5875 5874 5873 5872 5871 5870 5869 5867 5866 5865 5864 5862 5861 5860 5858 5857 5856 5855 5854
5892 5891 5891 5890 5890 5889 5889 5888 5887 5886 5885 5884 5882 5881 5880 5879 5877 5876 5875 5873 5872 5870 5869 5868 5868 5867 5866 5865 5864 5863 5862 5861 5859 5858 5857 5855 5854 5853 5851 5850 5848 5847 5846
5886 5886 5885 5884 5884 5883 5882 5881 5880 5879 5878 5877 5876 5875 5873 5872 5870 5869 5867 5866 5864 5863 5862 5860 5860 5860 5859 5857 5856 5855 5854 5853 5851 5850 5849 5848 5847 5845 5844 5843 5841 5840 5839
5880 5880 5879 5878 5877 5876 5875 5874 5873 5872 5871 5870 5868 5867 5865 5864 5862 5860 5859 5857 5856 5855 5853 5852 5851 5851 5850 5849 5848 5846 5845 5844 5842 5841 5840 5839 5838 5837 5836 5835 5834 5833 5832
5874 5873 5872 5871 5870 5869 5868 5866 5865 5864 5863 5862 5860 5858 5856 5854 5853 5851 5849 5848 5847 5846 5844 5843 5842 5842 5840 5839 5839 5837 5836 5835 5833 5832 5831 5830 5829 5829 5828 5827 5825 5824 5823
5866 5865 5864 5863 5862 5861 5859 5858 5857 5855 5854 5852 5851 5849 5847 5845 5843 5841 5840 5838 5837 5836 5835 5834 5833 5832 5830 5830 5829 5828 5827 5826 5825 5823 5822 5821 5821 5820 5819 5818 5817 5816 5815
5857 5856 5855 5854 5853 5851 5850 5848 5847 5845 5844 5842 5841 5839 5837 5835 5833 5832 5830 5829 5828 5827 5825 5824 5823 5822 5821 5820 5819 5819 5818 5816 5815 5814 5813 5812 5812 5811 5810 5809 5808 5807 5806
5848 5847 5846 5844 5842 5841 5839 5838 5836 5835 5834 5832 5830 5828 5827 5825 5823 5822 5820 5819 5817 5816 5815 5814 5813 5812 5811 5810 5809 5808 5807 5807 5806 5804 5803 5803 5802 5801 5800 5799 5798 5798 5797
5838 5837 5836 5834 5832 5831 5829 5827 5826 5824 5822 5821 5819 5817 5816 5814 5813 5811 5810 5808 5807 5805 5804 5803 5802 5801 5800 5799 5798 5797 5796 5796 5795 5794 5793 5792 5791 5791 5790 5789 5788 5787 5787
5829 5827 5826 5824 5822 5820 5818 5816 5814 5813 5811 5809 5808 5806 5804 5803 5801 5800 5798 5796 5795 5794 5792 5791 5791 5789 5788 5787 5787 5786 5785 5784 5783 5783 5782 5781 5780 5780 5779 5778 5778 5777 5776
5819 5817 5815 5813 5811 5809 5807 5805 5803 5801 5799 5797 5796 5794 5792 5791 5789 5788 5787 5785 5783 5782 5781 5780 5779 5777 5776 5775 5775 5774 5773 5772 5772 5771 5771 5770 5769 5768 5768 5767 5767 5766 5765
5807 5806 5804 5802 5800 5798 5796 5793 5791 5789 5787 5785 5783 5782 5780 5778 5776 5775 5774 5772 5771 5770 5769 5768 5766 5765 5764 5763 5762 5761 5761 5760 5760 5760 5759 5758 5758 5757 5757 5756 5755 5754 5754
5795 5794 5792 5790 5788 5787 5785 5783 5780 5778 5775 5773 5771 5769 5767 5765 5764 5762 5760 5759 5758 5756 5756 5755 5753 5752 5752 5751 5750 5749 5749 5748 5748 5747 5747 5746 5746 5745 5745 5745 5744 5743 5743
5784 5783 5781 5779 5777 5775 5773 5771 5769 5766 5764 5761 5759 5757 5754 5752 5751 5749 5747 5745 5744 5743 5742 5741 5740 5739 5739 5738 5737 5737 5737 5736 5735 5735 5735 5735 5734 5734 5734 5733 5733 5732 5731